Location: Grassland Mountain Observatory
(35.7543°N, 82.8038°W)
Time: 06:56:27
(UTC-05:00)

Envisat - Pass Details

Date: 04 December 2021
Orbit: 764 x 766 km, 98.2° (Epoch: 20 January)

Event Time Altitude Azimuth Distance (km) Brightness Sun altitude
Rises 05:34:41 0° 11° (N) 3,235 6.2 -22.0°
Reaches altitude 10° 05:37:00 10° 10° (N) 2,305 5.4 -21.5°
Maximum altitude 05:42:05 80° 284° (WNW) 779 2.8 -20.5°
Drops below altitude 10° 05:47:08 10° 198° (SSW) 2,289 5.4 -19.5°
Sets 05:49:25 0° 197° (SSW) 3,211 6.2 -19.1°
